Date_and_time,latitude,longitude,wind_speed,RelWindDirFrom,WindDirFrom,air_pressure,air_temperature,relative_humidity,Temp,platform_speed_wrt_ground,air_pressure_at_mean_sea_level,platform_orientation
2019-04-22 23:50,50.630445,-96.980775,7.8,9.0,12,995.16,8.2,49,4.45,0.0,1022.48,311.7
2019-04-23 00:00,50.63045,-96.9807833333333,9.3,9.8,5,995.11,9.0,44,4.53,0.0,1022.36,310.6
2019-04-23 00:10,50.6304466666667,-96.9807733333333,8.9,9.3,14,995.09,9.5,43,4.51,0.0,1022.31,310.6
2019-04-23 00:20,50.630445,-96.9807666666667,8.0,8.6,13,995.00,9.1,44,4.51,0.0,1022.23,310.6
2019-04-23 00:30,50.6304466666667,-96.9807683333333,6.3,7.4,12,994.90,7.9,50,4.48,0.0,1022.16,310.6
2019-04-23 00:40,50.6304383333333,-96.9807666666667,5.4,6.3,14,994.97,7.1,53,4.52,0.0,1022.29,310.6
2019-04-23 00:50,50.63044,-96.98078,5.3,6.2,7,994.95,7.1,52,4.58,0.0,1022.30,310.6
2019-04-23 01:00,50.6304433333333,-96.98078,6.2,6.9,2,994.90,7.5,49,4.57,0.0,1022.17,270.0
2019-04-23 01:10,50.6304416666667,-96.9807816666667,5.6,7.3,355,994.92,8.2,46,4.57,0.0,1022.18,270.0
2019-04-23 01:20,50.6304416666667,-96.9807816666667,5.9,7.8,357,994.98,8.9,44,4.54,0.0,1022.22,270.0
2019-04-23 01:30,50.6304633333333,-96.9807783333333,5.2,6.0,344,995.05,8.6,45,4.52,0.0,1022.30,270.0
2019-04-23 01:40,50.6304316666667,-96.9807833333333,5.0,5.7,336,995.01,8.8,43,4.50,0.0,1022.22,270.0
2019-04-23 01:50,50.630435,-96.980775,6.1,7.4,1,994.96,8.4,45,4.52,0.0,1022.14,270.0
2019-04-23 02:00,50.6304533333333,-96.980825,5.5,6.6,354,995.02,8.3,44,4.52,0.0,1022.19,292.7
2019-04-23 02:10,50.6304466666667,-96.9807816666667,4.9,5.8,353,995.10,8.4,43,4.49,0.0,1022.29,292.7
2019-04-23 02:20,50.6304366666667,-96.980765,5.5,6.5,349,995.15,8.2,45,4.49,0.0,1022.41,292.7
2019-04-23 02:30,50.630445,-96.98077,5.1,6.3,352,995.09,8.3,44,4.38,0.0,1022.38,292.7
2019-04-23 02:40,50.6304366666667,-96.9807716666667,5.5,6.2,5,995.04,8.1,45,4.29,0.0,1022.34,292.7
2019-04-23 02:50,50.6304383333333,-96.9807683333333,5.8,6.6,2,995.05,7.5,47,4.26,0.0,1022.35,292.7
2019-04-23 03:00,50.6304383333333,-96.9807633333333,4.6,6.2,354,994.99,7.3,47,4.26,0.0,1022.27,130.6
2019-04-23 03:10,50.63044,-96.980765,4.3,4.7,356,995.01,7.0,48,4.26,0.0,1022.27,130.6
2019-04-23 03:20,50.63044,-96.9807666666667,5.0,6.7,1,995.00,6.5,51,4.25,0.0,1022.30,130.6
2019-04-23 03:30,50.63043,-96.9807866666667,5.5,6.4,6,994.86,5.5,55,4.23,0.0,1022.20,130.6
2019-04-23 03:40,50.630435,-96.98078,5.1,5.7,3,994.76,4.9,56,4.20,0.0,1022.15,130.6
2019-04-23 03:50,50.6304433333333,-96.9807716666667,3.8,4.8,357,994.69,5.6,53,4.20,0.0,1022.04,130.6
2019-04-23 04:00,50.6304416666667,-96.980775,0.9,2.8,315,994.63,5.5,54,4.20,0.0,1021.98,90.0
2019-04-23 04:10,50.6304433333333,-96.980775,1.6,2.7,182,994.60,4.7,57,4.18,0.0,1022.00,90.0
2019-04-23 04:20,50.630445,-96.9807766666667,0.8,2.1,149,994.53,3.9,61,4.16,0.0,1021.96,90.0
2019-04-23 04:30,50.63045,-96.9807683333333,1.6,5.8,114,994.50,3.7,64,4.15,0.0,1021.95,90.0
2019-04-23 04:40,50.630445,-96.9807733333333,1.0,2.0,45,994.36,3.3,66,4.13,0.0,1021.85,90.0
2019-04-23 04:50,50.6304483333333,-96.9807733333333,0.8,1.4,354,994.27,3.0,68,4.11,0.0,1021.79,90.0
2019-04-23 05:00,50.6304483333333,-96.9807716666667,1.7,2.7,145,994.22,2.5,68,4.09,0.0,1021.78,98.8
2019-04-23 05:10,50.6304516666667,-96.98078,0.6,2.1,187,994.15,2.5,68,4.06,0.0,1021.73,98.8
2019-04-23 05:20,50.6304533333333,-96.98078,0.4,1.7,5,994.16,3.0,66,4.05,0.0,1021.77,98.8
2019-04-23 05:30,50.6304516666667,-96.9807783333333,1.4,2.9,5,994.09,3.4,64,4.08,0.0,1021.70,98.8
2019-04-23 05:40,50.6304516666667,-96.980775,1.0,3.1,344,994.08,3.7,64,4.07,0.0,1021.65,98.8
2019-04-23 05:50,50.63045,-96.9807733333333,1.6,2.5,267,994.09,3.5,65,4.02,0.0,1021.67,98.8
2019-04-23 06:00,50.6304483333333,-96.9807716666667,1.5,2.2,295,994.07,3.6,64,3.91,0.0,1021.68,311.7
2019-04-23 06:10,50.630445,-96.98077,1.4,2.1,300,994.04,3.9,63,3.89,0.0,1021.67,311.7
2019-04-23 06:20,50.6304283333333,-96.9807783333333,1.6,2.3,295,993.91,3.5,65,3.85,0.0,1021.58,311.7
2019-04-23 06:30,50.6304316666667,-96.9807583333333,1.3,1.9,314,993.79,3.7,64,3.87,0.0,1021.46,311.7
2019-04-23 06:40,50.6304483333333,-96.980755,1.5,2.2,295,993.60,3.8,63,3.88,0.0,1021.28,311.7
2019-04-23 06:50,50.630435,-96.9807666666667,1.6,2.4,288,993.50,3.2,65,3.90,0.0,1021.23,311.7
2019-04-23 07:00,50.6304316666667,-96.98077,1.7,2.5,282,993.42,3.2,64,3.92,0.0,1021.15,138.7
2019-04-23 07:10,50.6304316666667,-96.9807683333333,2.9,3.8,274,993.39,3.0,66,3.94,0.0,1021.10,138.7
2019-04-23 07:20,50.6304316666667,-96.9807683333333,2.3,3.5,288,993.27,2.9,66,3.96,0.0,1020.96,138.7
2019-04-23 07:30,50.6304333333333,-96.98077,1.1,1.7,325,993.18,3.4,64,3.96,0.0,1020.82,138.7
2019-04-23 07:40,50.630435,-96.98077,1.3,1.8,308,993.02,3.3,65,3.96,0.0,1020.68,138.7
2019-04-23 07:50,50.630435,-96.98077,1.7,2.1,281,992.85,2.8,66,3.94,0.0,1020.52,138.7
2019-04-23 08:00,50.6304366666667,-96.98077,2.0,2.5,271,992.75,2.7,67,3.92,0.0,1020.42,165.5
2019-04-23 08:10,50.6304383333333,-96.9807666666667,2.4,2.9,254,992.62,2.5,66,3.79,0.0,1020.31,165.5
2019-04-23 08:20,50.6304383333333,-96.9807666666667,2.4,3.3,250,992.50,2.4,66,3.72,0.0,1020.17,165.5
2019-04-23 08:30,50.6304383333333,-96.9807666666667,1.5,2.5,245,992.36,2.4,67,3.73,0.0,1020.03,165.5
2019-04-23 08:40,50.6304383333333,-96.9807666666667,2.2,2.9,248,992.29,2.1,68,3.76,0.0,1020.00,165.5
2019-04-23 08:50,50.63044,-96.9807683333333,3.0,3.7,249,992.34,1.9,68,3.79,0.0,1020.06,165.5
2019-04-23 09:00,50.63044,-96.9807666666667,2.2,3.5,255,992.27,1.9,69,3.81,0.0,1020.00,131.7
2019-04-23 09:10,50.63044,-96.9807666666667,1.9,2.7,244,992.24,1.7,70,3.83,0.0,1019.99,131.7
2019-04-23 09:20,50.63044,-96.9807666666667,2.3,2.8,237,992.19,1.6,70,3.83,0.0,1019.92,131.7
2019-04-23 09:30,50.630435,-96.98076,2.7,3.1,231,992.14,1.6,69,3.82,0.0,1019.88,131.7
2019-04-23 09:40,50.6304383333333,-96.980765,2.8,3.2,231,992.00,1.7,69,3.81,0.0,1019.75,131.7
2019-04-23 09:50,50.6304316666667,-96.9807633333333,2.9,3.4,228,991.85,1.6,69,3.83,0.0,1019.61,131.7
2019-04-23 10:00,50.6304383333333,-96.9807633333333,3.4,4.0,223,991.94,1.5,70,3.83,0.0,1019.72,360.0
2019-04-23 10:10,50.6304416666667,-96.98076,4.0,4.3,211,991.96,1.6,70,3.83,0.0,1019.73,360.0
2019-04-23 10:20,50.63044,-96.9807616666667,2.9,4.1,198,991.87,1.5,70,3.84,0.0,1019.65,360.0
2019-04-23 10:30,50.63044,-96.9807616666667,2.1,2.6,203,991.78,1.5,71,3.86,0.0,1019.56,360.0
2019-04-23 10:40,50.6304416666667,-96.9807633333333,2.1,2.7,174,991.55,1.7,70,3.87,0.0,1019.33,360.0
2019-04-23 10:50,50.6304633333333,-96.9807616666667,0.8,1.6,174,991.47,1.2,73,3.88,0.0,1019.27,360.0
2019-04-23 11:00,50.6304433333333,-96.9807666666667,1.0,1.5,181,991.39,0.6,77,3.89,0.0,1019.23,38.0
2019-04-23 11:10,50.630445,-96.9807666666667,1.9,2.6,176,991.31,-0.5,84,3.90,0.0,1019.21,38.0
2019-04-23 11:20,50.630445,-96.9807666666667,1.8,2.2,166,991.18,-1.1,90,3.90,0.0,1019.11,38.0
2019-04-23 11:30,50.630445,-96.9807633333333,2.6,3.2,168,991.13,-1.2,97,3.90,0.0,1019.07,38.0
2019-04-23 11:40,50.6304433333333,-96.9807633333333,3.1,3.5,164,991.10,-0.6,99,3.90,0.0,1019.01,38.0
2019-04-23 11:50,50.6304433333333,-96.9807633333333,2.9,4.0,171,991.08,0.0,98,3.89,0.0,1018.95,38.0
2019-04-23 12:00,50.6304416666667,-96.9807633333333,4.4,5.1,147,990.86,0.1,94,3.87,0.0,1018.72,90.0
2019-04-23 12:10,50.6304416666667,-96.9807633333333,4.0,5.0,152,990.87,-0.4,96,3.87,0.0,1018.76,90.0
2019-04-23 12:20,50.6304416666667,-96.9807633333333,4.0,4.9,157,990.91,-0.5,98,3.87,0.0,1018.81,90.0
2019-04-23 12:30,50.6304483333333,-96.98077,5.2,6.0,152,990.89,-0.3,97,3.87,0.0,1018.77,90.0
2019-04-23 12:40,50.630445,-96.9807733333333,5.7,6.7,156,990.85,-0.3,99,3.87,0.0,1018.75,90.0
2019-04-23 12:50,50.6304433333333,-96.9807733333333,5.5,6.9,158,990.77,-0.2,99,3.88,0.0,1018.69,90.0
2019-04-23 13:00,50.630445,-96.9807733333333,6.0,7.5,159,990.72,0.2,99,3.89,0.0,1018.68,270.0
2019-04-23 13:10,50.630445,-96.9807733333333,6.0,7.2,159,990.69,0.4,99,3.86,0.0,1018.67,270.0
2019-04-23 13:20,50.630445,-96.9807716666667,5.9,6.8,162,990.59,0.7,99,3.84,0.0,1018.55,270.0
2019-04-23 13:30,50.630445,-96.9807716666667,5.6,6.9,151,990.46,1.1,98,3.83,0.0,1018.37,270.0
2019-04-23 13:40,50.63045,-96.9807783333333,6.6,7.4,148,990.40,1.5,94,3.82,0.0,1018.26,270.0
2019-04-23 13:50,50.6304433333333,-96.9807716666667,6.4,7.4,151,990.31,1.6,96,3.78,0.0,1018.16,270.0
2019-04-23 14:00,50.6304433333333,-96.9807716666667,7.2,8.3,146,990.09,1.6,98,3.79,0.0,1017.96,270.0
2019-04-23 14:10,50.6304433333333,-96.980775,8.1,10.2,138,989.83,1.9,98,3.85,0.0,1017.68,270.0
2019-04-23 14:20,50.6304433333333,-96.9807716666667,4.6,8.4,136,989.71,2.1,99,3.91,0.0,1017.53,270.0
2019-04-23 14:30,50.630455,-96.980805,5.2,7.8,162,989.67,2.0,99,3.94,0.0,1017.50,270.0
2019-04-23 14:40,50.6304683333333,-96.9808166666667,8.2,9.5,166,989.48,2.4,96,3.96,0.0,1017.27,270.0
2019-04-23 14:50,50.63045,-96.980765,8.9,10.4,159,989.27,2.8,95,3.99,0.0,1017.02,270.0
2019-04-23 15:00,50.6304516666667,-96.9807666666667,8.8,10.1,160,989.20,2.9,96,4.01,0.0,1016.93,360.0
2019-04-23 15:10,50.63045,-96.980765,9.6,12.7,155,989.08,3.3,93,4.01,0.0,1016.77,360.0
2019-04-23 15:20,50.630445,-96.98077,7.9,10.2,152,988.90,3.4,93,4.01,0.0,1016.56,360.0
2019-04-23 15:30,50.6304333333333,-96.98076,4.3,8.1,154,988.76,3.2,94,4.01,0.0,1016.40,360.0
2019-04-23 15:40,50.63044,-96.9807566666667,5.2,9.0,156,988.54,3.5,92,4.02,0.0,1016.16,360.0
2019-04-23 15:50,50.63044,-96.9807633333333,5.6,9.7,133,988.32,4.3,90,4.01,0.0,1015.89,360.0
2019-04-23 16:00,50.63044,-96.9807633333333,9.3,12.0,136,988.15,4.5,88,4.01,0.0,1015.70,90.0
2019-04-23 16:10,50.63044,-96.9807666666667,8.6,12.4,141,988.03,4.8,83,4.02,0.0,1015.54,90.0
2019-04-23 16:20,50.6304416666667,-96.9807683333333,10.7,14.6,149,987.91,5.3,77,4.02,0.0,1015.40,90.0
2019-04-23 16:30,50.6304416666667,-96.9807666666667,9.7,12.1,165,987.87,5.5,76,4.03,0.0,1015.33,90.0
2019-04-23 16:40,50.6304416666667,-96.9807666666667,11.5,14.0,163,987.79,6.1,71,4.03,0.0,1015.20,90.0
2019-04-23 16:50,50.6304433333333,-96.9807683333333,13.4,15.8,151,987.56,6.9,66,4.03,0.0,1014.92,90.0
2019-04-23 17:00,50.6304433333333,-96.98077,14.0,16.8,149,987.32,7.1,64,4.01,0.0,1014.64,90.0
2019-04-23 17:10,50.6304383333333,-96.98076,11.8,15.3,150,987.10,7.0,64,4.06,0.0,1014.42,90.0
2019-04-23 17:20,50.6304416666667,-96.9807683333333,14.4,16.9,148,986.80,6.7,64,4.02,0.0,1014.13,90.0
2019-04-23 17:30,50.63044,-96.9807716666667,15.0,17.9,147,986.57,6.8,63,3.89,0.0,1013.87,90.0
2019-04-23 17:40,50.6304433333333,-96.9807716666667,17.3,19.3,146,986.25,7.6,61,3.82,0.0,1013.46,90.0
2019-04-23 17:50,50.6304416666667,-96.98077,16.8,19.5,148,986.02,7.4,61,3.79,0.0,1013.23,90.0
2019-04-23 18:00,50.6304416666667,-96.98077,14.8,19.1,151,985.91,6.8,64,3.75,0.0,1013.14,360.0
2019-04-23 18:10,50.6304416666667,-96.98077,14.6,18.0,152,985.69,6.7,62,3.71,0.0,1012.88,360.0
2019-04-23 18:20,50.6304533333333,-96.980775,15.2,18.6,151,985.41,6.9,61,3.69,0.0,1012.58,360.0
2019-04-23 18:30,50.630445,-96.9807666666667,13.7,16.1,155,985.32,6.5,63,3.80,0.0,1012.48,360.0
2019-04-23 18:40,50.6304433333333,-96.9807666666667,14.2,17.5,156,985.15,6.4,63,3.87,0.0,1012.27,360.0
2019-04-23 18:50,50.6304416666667,-96.9807633333333,14.0,17.5,156,984.95,6.5,63,3.90,0.0,1012.04,360.0
2019-04-23 19:00,50.6304416666667,-96.9807633333333,14.0,16.5,152,984.66,6.7,63,3.95,0.0,1011.74,90.0
2019-04-23 19:10,50.63046,-96.9807666666667,15.1,17.7,151,984.37,7.0,60,4.00,0.0,1011.45,90.0
2019-04-23 19:20,50.63045,-96.9807666666667,15.9,20.3,154,983.94,7.4,57,3.97,0.0,1010.98,90.0
2019-04-23 19:30,50.630445,-96.9807683333333,14.0,17.8,161,983.85,6.9,59,3.98,0.0,1010.88,90.0
2019-04-23 19:40,50.6304466666667,-96.980765,15.9,19.0,157,983.59,7.2,57,3.96,0.0,1010.61,90.0
2019-04-23 19:50,50.6304466666667,-96.9807633333333,15.3,19.0,156,983.51,7.3,57,4.03,0.0,1010.55,90.0
2019-04-23 20:00,50.6304433333333,-96.9807766666667,15.1,19.6,156,983.35,7.4,59,4.12,0.0,1010.38,270.0
2019-04-23 20:10,50.6304266666667,-96.980765,14.6,17.8,155,983.11,7.2,60,4.14,0.0,1010.14,270.0
2019-04-23 20:20,50.630435,-96.9807616666667,14.9,17.6,158,982.92,6.9,62,4.12,0.0,1009.97,270.0
2019-04-23 20:30,50.630435,-96.9807616666667,15.5,18.7,158,982.64,7.3,61,4.10,0.0,1009.67,270.0
2019-04-23 20:40,50.6304366666667,-96.9807633333333,15.9,20.4,157,982.42,7.3,60,4.15,0.0,1009.44,270.0
2019-04-23 20:50,50.6304383333333,-96.9807633333333,16.2,19.2,157,982.25,8.1,58,4.18,0.0,1009.22,270.0
2019-04-23 21:00,50.63044,-96.9807633333333,16.2,20.2,157,982.09,8.4,56,4.20,0.0,1009.02,90.0
2019-04-23 21:10,50.63044,-96.9807633333333,16.3,18.9,154,981.83,8.1,56,4.20,0.0,1008.75,90.0
2019-04-23 21:20,50.6304416666667,-96.9807633333333,16.1,18.9,157,981.55,8.1,55,4.20,0.0,1008.49,90.0
2019-04-23 21:30,50.6304433333333,-96.9807633333333,16.6,20.1,155,981.35,8.1,55,4.14,0.0,1008.27,90.0
2019-04-23 21:40,50.6304433333333,-96.9807633333333,16.8,21.0,154,981.12,8.5,54,4.08,0.0,1008.01,90.0
2019-04-23 21:50,50.630445,-96.9807633333333,16.2,19.2,155,980.94,9.2,53,4.12,0.0,1007.78,90.0
2019-04-23 22:00,50.630445,-96.9807633333333,15.2,19.0,156,980.87,8.2,57,4.22,0.0,1007.77,0.0
2019-04-23 22:10,50.630445,-96.980765,15.5,18.2,156,980.68,8.0,57,4.22,0.0,1007.60,0.0
2019-04-23 22:20,50.6304433333333,-96.980765,15.4,18.0,156,980.54,7.8,59,4.18,0.0,1007.45,0.0
2019-04-23 22:30,50.6304366666667,-96.98075,15.0,17.2,159,980.54,7.5,61,4.19,0.0,1007.46,0.0
2019-04-23 22:40,50.6304383333333,-96.9807533333333,14.2,17.2,158,980.34,7.5,62,4.25,0.0,1007.21,0.0
2019-04-23 22:50,50.63044,-96.9807616666667,15.4,17.9,158,980.12,7.7,62,4.24,0.0,1006.97,0.0
2019-04-23 23:00,50.6304466666667,-96.9807716666667,16.8,23.1,157,979.90,8.6,62,4.25,0.0,1006.71,360.0
2019-04-23 23:10,50.63045,-96.98077,15.6,19.0,159,979.85,8.4,65,4.29,0.0,1006.67,360.0
2019-04-23 23:20,50.6304483333333,-96.98077,15.7,19.9,163,979.76,9.6,62,4.27,0.0,1006.51,360.0
2019-04-23 23:30,50.6304683333333,-96.9807933333333,14.7,18.3,160,979.76,9.8,63,4.23,0.0,1006.49,360.0
2019-04-23 23:40,50.6304466666667,-96.98077,14.8,18.4,157,979.58,9.4,64,4.27,0.0,1006.29,360.0
2019-04-23 23:50,50.6304466666667,-96.980775,14.4,16.3,156,979.46,8.6,67,4.28,0.0,1006.26,360.0
